Wind_Speed
35 33 31 29 27 26 25 24 21 21 19 18 16 17 17 14 18 14 14 13 16 18 21 23 21 19 19 16 12 12 20 26 35 38 30 23 18 7 10 11 13 19 18 14 15
42 39 36 35 33 30 28 26 26 22 21 20 17 19 17 16 18 15 15 12 13 16 18 22 23 18 16 16 14 15 19 22 31 36 26 22 18 14 13 17 18 20 20 18 18
45 44 42 40 39 35 33 31 29 28 24 23 20 18 17 17 16 16 17 13 12 13 16 19 18 17 13 16 20 20 17 18 25 31 21 23 19 10 10 15 15 16 20 20 20
48 48 48 46 45 44 41 38 35 31 28 25 23 18 16 17 13 16 17 15 11 12 12 14 14 14 13 16 17 18 20 21 22 28 15 20 21 10 9 11 8 13 14 17 19
54 51 52 49 48 48 46 43 40 37 33 29 25 21 16 15 10 13 18 14 10 13 13 14 14 14 12 15 15 17 14 20 27 23 17 16 16 14 7 7 8 6 8 12 16
59 55 54 53 53 50 48 46 47 43 38 34 30 23 18 14 9 11 17 14 10 12 10 9 11 11 12 10 15 19 8 20 28 24 20 14 14 13 10 3 4 4 3 4 8
58 57 56 54 51 52 51 50 50 47 45 39 37 28 22 23 17 14 16 18 14 15 10 10 9 11 10 11 13 18 10 17 29 23 25 17 12 9 11 9 1 7 6 3 3
56 57 59 57 56 54 52 50 53 50 51 48 40 35 28 32 22 15 18 19 17 17 13 9 11 12 15 16 17 20 11 7 24 19 26 32 26 15 9 8 9 5 6 10 10
57 58 59 61 61 59 57 54 54 50 53 52 51 42 37 38 25 23 21 21 18 18 18 8 12 12 15 10 13 9 6 7 12 18 15 25 31 28 38 25 9 5 4 5 7
56 57 57 60 61 60 59 57 57 56 54 53 52 46 43 43 32 29 24 22 19 19 17 13 12 13 13 11 12 16 12 8 9 10 11 14 23 26 29 37 21 7 7 2 3
47 51 54 56 57 56 58 57 57 59 61 58 55 50 48 46 37 31 29 25 23 22 17 15 11 14 15 15 16 17 13 13 11 12 10 11 17 18 31 37 20 6 8 4 2
37 40 44 48 49 51 56 57 59 61 63 63 59 53 53 48 41 40 34 30 27 25 19 18 10 13 16 15 14 13 13 13 12 5 10 12 14 21 30 29 22 11 7 4 2
38 39 39 40 39 44 50 56 60 61 60 65 63 57 55 54 47 46 40 36 31 28 21 20 13 11 13 17 13 9 8 10 8 8 9 7 14 26 30 31 21 13 4 6 7
39 39 39 40 39 40 43 50 55 57 61 62 62 59 60 59 54 54 48 39 37 30 24 22 19 10 12 16 12 9 10 5 2 7 3 8 16 27 27 30 20 15 8 4 4
36 40 40 41 39 41 44 46 47 55 60 63 58 53 58 61 57 57 54 45 41 34 28 23 22 13 12 14 11 8 5 6 4 7 5 14 21 23 25 26 16 10 12 11 9
20 22 33 41 43 42 43 45 45 48 54 60 59 50 56 59 58 59 54 51 45 38 26 24 23 16 13 13 9 7 6 7 5 7 7 12 18 19 23 19 14 14 15 15 15
17 16 20 25 38 42 44 44 45 45 47 54 59 53 58 57 57 59 57 50 41 35 28 27 26 18 15 11 10 7 2 1 2 7 4 10 15 22 20 16 19 19 22 24 23
21 18 19 23 26 32 41 45 45 48 45 49 56 58 60 57 55 59 57 51 45 40 34 28 29 20 15 9 1 3 5 5 5 4 7 11 12 18 20 18 19 21 20 20 20
24 22 23 26 23 25 31 40 48 49 50 49 52 59 64 58 55 57 56 52 50 43 35 31 30 19 16 13 11 7 8 7 5 8 9 11 12 17 18 17 21 19 16 16 17
31 29 30 30 26 22 23 33 46 51 51 52 50 57 64 61 56 56 56 53 51 46 43 39 34 23 21 17 16 13 10 11 11 13 8 11 13 12 15 16 17 14 13 15 17
38 37 37 37 32 28 26 33 39 49 52 54 53 53 61 64 59 55 54 55 55 51 48 43 36 27 25 20 19 16 15 19 18 19 13 7 9 15 14 13 12 10 10 12 13
43 43 43 43 40 38 37 38 37 39 48 53 56 54 59 63 63 58 56 57 57 54 49 46 40 32 28 21 21 14 12 14 12 11 6 4 8 10 13 11 10 11 12 12 12
51 49 50 49 48 47 46 43 39 33 34 44 55 56 58 61 64 62 60 62 59 56 51 48 40 35 27 22 23 24 17 18 15 12 4 7 8 4 9 10 8 8 11 12 12
59 58 56 56 55 55 53 49 45 40 37 39 49 59 60 60 63 65 63 63 61 59 56 51 45 38 31 33 30 30 25 26 18 12 9 9 5 6 11 8 3 3 6 7 7
72 69 65 63 63 62 60 57 53 50 46 42 43 56 63 64 63 69 68 67 64 63 59 53 47 43 38 32 29 27 26 26 21 14 12 9 2 8 11 11 8 6 6 5 5
88 86 81 76 73 70 67 63 59 56 48 45 44 48 62 68 67 74 79 74 71 70 66 59 53 48 41 35 34 31 28 25 22 21 21 18 15 12 14 15 12 9 9 7 7
101 96 91 90 84 78 74 70 67 60 55 50 50 48 60 73 74 77 83 78 73 71 68 61 57 53 44 39 37 27 24 20 17 16 22 24 17 11 16 15 14 13 11 9 9
Wind_Direction
246 245 245 249 249 248 253 252 253 257 262 266 265 272 278 280 283 288 307 326 332 342 354 341 344 348 336 350 337 8 6 13 17 12 2 24 55 54 78 85 102 95 97 94 88
242 246 247 248 248 249 251 251 254 255 260 261 261 271 276 273 273 290 305 319 327 350 359 346 343 356 338 340 354 9 355 17 16 2 4 26 43 65 89 104 107 100 88 87 96
245 242 245 249 247 247 252 251 252 257 257 259 258 265 269 268 273 287 290 299 322 350 0 348 348 356 337 340 350 351 344 23 16 2 4 29 23 56 83 108 105 101 91 85 81
247 246 247 249 246 246 247 250 251 251 254 257 259 256 265 264 272 277 284 294 319 340 348 347 336 350 346 339 347 345 4 29 21 2 6 21 19 22 81 109 104 95 91 83 83
251 248 246 246 245 247 245 246 250 251 250 250 254 254 257 260 257 268 274 294 306 328 343 348 334 341 341 340 11 2 1 26 10 3 24 17 15 15 54 128 146 114 93 91 89
251 250 247 244 243 242 241 243 246 248 247 249 248 247 243 243 247 268 270 295 315 316 327 343 331 335 334 356 13 355 359 31 12 14 22 20 9 4 59 109 179 173 147 101 80
249 248 246 244 241 240 241 240 243 243 248 247 247 239 232 245 245 262 279 291 309 302 321 337 342 324 325 323 353 356 327 30 20 36 35 14 4 12 62 58 73 233 240 262 258
247 247 244 243 242 240 242 245 242 244 247 245 245 241 238 243 244 256 274 287 289 294 309 331 338 325 290 307 321 324 325 38 27 48 48 44 32 13 13 71 60 3 266 247 246
246 246 245 243 242 243 244 245 240 241 242 242 243 245 237 243 240 247 262 274 275 281 300 328 328 329 296 310 309 312 315 14 32 9 25 39 27 25 29 23 8 358 329 251 250
249 249 246 245 243 242 243 243 239 238 238 241 241 237 236 240 238 242 253 258 261 266 282 301 311 315 326 334 310 296 319 328 344 338 356 20 18 18 7 9 6 300 268 338 1
247 247 247 247 244 241 239 238 238 235 236 236 237 235 236 239 235 245 249 250 253 251 263 281 294 313 325 328 320 300 293 304 323 324 320 343 8 359 3 357 359 301 282 207 199
248 246 246 246 244 242 239 236 235 235 234 235 235 233 233 238 232 243 245 245 250 258 265 267 279 304 323 319 316 301 303 297 293 277 297 327 330 346 354 3 359 345 262 223 249
249 249 248 246 243 241 239 235 234 233 233 235 233 231 232 236 233 237 240 245 249 260 262 268 271 291 318 307 318 289 294 287 256 263 297 320 328 354 4 7 3 6 333 220 217
248 248 249 249 245 242 240 236 233 231 231 233 231 227 229 233 232 234 238 240 244 251 254 259 269 274 301 303 316 324 334 281 338 306 5 343 350 355 15 7 9 34 46 103 160
252 249 246 245 244 241 239 239 232 229 228 230 231 224 226 229 231 234 235 234 237 241 246 255 266 266 282 294 315 316 341 270 235 270 302 1 348 359 20 11 25 62 74 83 93
260 257 249 244 242 241 239 239 237 231 228 227 227 222 226 225 227 232 234 235 239 243 248 243 255 254 271 289 311 307 295 279 275 270 341 347 342 12 11 20 39 83 82 81 84
276 267 258 249 242 238 236 235 236 235 228 225 223 218 224 223 221 226 227 228 228 230 228 233 247 250 262 289 316 312 59 69 256 315 22 349 335 31 22 32 46 60 60 57 54
270 268 263 255 246 241 234 232 232 233 229 225 221 215 220 221 219 223 223 223 219 223 227 224 238 248 253 258 270 118 52 289 289 251 290 306 7 34 27 29 48 54 54 49 43
261 257 258 257 258 247 239 231 229 228 227 225 220 215 218 219 217 219 219 213 214 216 210 217 233 233 239 224 203 162 156 245 215 186 257 311 17 39 34 28 46 48 40 36 32
260 255 251 256 256 251 242 237 230 229 225 226 221 217 217 215 215 218 219 213 213 210 206 209 226 222 227 223 210 206 197 235 245 231 262 304 23 45 40 36 40 43 26 9 12
264 258 253 250 248 247 241 240 233 230 226 223 221 218 218 216 210 214 215 214 211 210 208 209 217 215 223 220 212 207 211 237 255 240 246 355 4 20 36 33 32 26 9 355 356
265 260 255 251 247 241 240 240 242 238 231 225 225 217 219 216 209 208 213 213 213 210 206 207 208 209 220 211 212 200 227 259 235 223 229 338 8 6 13 21 12 4 352 335 340
265 260 256 251 245 241 239 239 243 243 238 230 227 222 220 216 209 205 211 213 210 210 206 209 206 211 218 208 204 207 211 231 230 271 306 320 342 3 353 4 2 344 325 327 337
261 257 252 248 246 241 238 238 237 236 236 232 224 221 219 218 210 204 210 212 211 208 206 206 205 205 209 208 212 209 205 212 241 262 275 320 342 62 40 12 1 340 325 332 335
262 255 248 246 242 239 237 234 234 234 232 234 230 220 216 217 211 204 208 211 210 206 206 202 205 208 210 210 212 213 207 217 231 246 266 302 270 7 4 355 355 355 349 352 348
257 255 251 242 239 237 234 232 233 232 230 232 235 225 214 212 212 206 205 209 206 204 202 199 197 208 209 207 213 211 213 222 242 251 258 261 266 298 319 321 311 318 312 327 344
261 260 258 250 236 232 232 229 230 230 232 230 233 225 215 209 209 209 205 208 206 202 202 199 198 202 208 206 210 205 204 200 206 228 246 252 258 279 288 297 291 300 298 317 330
Height
10957 10960 10961 10963 10965 10966 10968 10970 10971 10973 10974 10977 10980 10980 10981 10983 10981 10982 10982 10982 10979 10977 10974 10970 10968 10965 10964 10965 10962 10957 10952 10949 10943 10941 10940 10935 10932 10931 10930 10930 10930 10930 10930 10932 10931
10951 10954 10956 10959 10961 10962 10964 10966 10968 10969 10971 10973 10977 10977 10979 10980 10979 10981 10980 10981 10979 10978 10975 10969 10966 10964 10963 10964 10962 10959 10955 10950 10945 10944 10941 10938 10936 10936 10934 10934 10936 10934 10933 10935 10936
10945 10948 10950 10953 10955 10957 10960 10962 10964 10966 10968 10970 10973 10975 10977 10977 10978 10979 10976 10977 10978 10979 10976 10971 10968 10966 10965 10964 10959 10957 10958 10953 10950 10947 10942 10940 10939 10939 10938 10935 10937 10938 10936 10938 10938
10936 10940 10943 10945 10949 10952 10955 10957 10959 10962 10963 10967 10969 10972 10974 10975 10977 10976 10974 10974 10976 10978 10976 10973 10970 10968 10967 10964 10960 10957 10952 10952 10953 10950 10944 10941 10940 10941 10939 10938 10939 10939 10939 10940 10939
10925 10930 10933 10936 10940 10944 10949 10951 10953 10957 10959 10962 10965 10970 10971 10973 10974 10973 10971 10972 10974 10975 10974 10973 10970 10968 10967 10966 10963 10961 10959 10955 10955 10951 10946 10944 10944 10942 10940 10940 10941 10941 10941 10942 10941
10915 10919 10922 10926 10931 10935 10940 10944 10947 10951 10953 10957 10960 10965 10968 10969 10971 10971 10969 10970 10973 10974 10973 10973 10972 10968 10966 10964 10963 10961 10962 10958 10954 10950 10947 10946 10945 10944 10941 10941 10943 10942 10943 10944 10944
10903 10907 10911 10915 10921 10926 10931 10936 10939 10943 10947 10951 10954 10961 10964 10964 10966 10969 10968 10967 10970 10970 10971 10970 10969 10968 10967 10964 10965 10964 10961 10959 10955 10951 10948 10945 10945 10945 10942 10941 10942 10942 10943 10946 10946
10891 10894 10899 10904 10910 10916 10922 10926 10930 10935 10939 10942 10947 10955 10960 10956 10963 10967 10966 10965 10967 10967 10969 10970 10967 10967 10967 10966 10962 10964 10963 10961 10960 10957 10954 10949 10949 10946 10944 10943 10942 10942 10943 10944 10945
10877 10881 10886 10891 10898 10905 10911 10915 10920 10926 10929 10932 10938 10948 10953 10950 10960 10963 10963 10963 10965 10965 10965 10967 10967 10968 10965 10964 10963 10962 10963 10963 10961 10959 10956 10953 10951 10951 10947 10943 10941 10941 10941 10941 10942
10865 10869 10873 10878 10886 10893 10898 10902 10909 10913 10918 10923 10930 10940 10944 10944 10955 10958 10960 10960 10961 10962 10964 10966 10967 10966 10964 10961 10962 10960 10961 10960 10961 10960 10956 10954 10954 10953 10950 10946 10943 10941 10940 10939 10939
10852 10856 10860 10865 10873 10880 10885 10889 10895 10899 10905 10912 10919 10929 10935 10940 10950 10954 10955 10956 10958 10959 10960 10963 10965 10964 10963 10960 10959 10958 10957 10957 10957 10957 10955 10955 10954 10952 10949 10945 10941 10939 10939 10937 10938
10842 10845 10849 10852 10860 10865 10869 10875 10880 10884 10892 10900 10911 10921 10926 10932 10943 10947 10950 10951 10952 10955 10959 10961 10961 10961 10960 10960 10958 10955 10954 10954 10954 10954 10954 10954 10952 10951 10948 10943 10938 10936 10937 10937 10937
10834 10836 10840 10842 10848 10852 10854 10860 10865 10874 10881 10889 10899 10913 10919 10924 10934 10939 10944 10948 10948 10953 10957 10958 10959 10959 10960 10958 10956 10955 10954 10953 10952 10952 10952 10952 10951 10951 10945 10941 10937 10935 10935 10935 10938
10825 10827 10831 10833 10838 10841 10842 10846 10854 10864 10870 10875 10885 10901 10907 10912 10923 10928 10935 10944 10942 10949 10954 10955 10956 10957 10958 10956 10955 10953 10951 10950 10952 10953 10953 10954 10954 10951 10945 10943 10938 10935 10935 10936 10937
10816 10818 10821 10824 10828 10830 10833 10835 10844 10849 10857 10864 10877 10890 10895 10903 10912 10917 10926 10935 10936 10944 10949 10952 10954 10955 10954 10953 10953 10952 10951 10950 10951 10953 10955 10956 10954 10952 10947 10945 10942 10940 10940 10939 10939
10810 10810 10811 10813 10817 10820 10823 10827 10833 10838 10846 10854 10867 10881 10881 10891 10902 10907 10919 10926 10932 10940 10949 10949 10950 10951 10951 10951 10951 10949 10949 10950 10952 10954 10956 10956 10955 10952 10950 10948 10947 10944 10944 10942 10941
10805 10805 10805 10804 10805 10810 10814 10819 10824 10828 10835 10844 10855 10870 10867 10879 10889 10896 10908 10919 10929 10936 10943 10944 10947 10950 10947 10949 10950 10948 10949 10950 10953 10955 10957 10957 10956 10953 10953 10952 10949 10946 10945 10943 10943
10800 10800 10799 10796 10798 10800 10804 10810 10814 10818 10826 10832 10842 10856 10856 10868 10879 10887 10898 10912 10920 10928 10935 10940 10942 10947 10946 10948 10951 10948 10949 10952 10954 10957 10956 10957 10956 10954 10954 10954 10950 10947 10947 10946 10946
10793 10794 10792 10791 10793 10795 10796 10801 10802 10807 10814 10821 10830 10843 10844 10860 10871 10877 10891 10903 10910 10921 10929 10935 10937 10945 10946 10948 10951 10949 10951 10953 10954 10956 10956 10958 10955 10954 10955 10954 10948 10950 10950 10949 10948
10784 10785 10784 10785 10787 10789 10790 10790 10792 10796 10803 10811 10821 10831 10837 10851 10864 10872 10882 10896 10904 10913 10919 10926 10932 10941 10943 10946 10949 10950 10950 10953 10955 10957 10958 10958 10956 10956 10956 10954 10951 10952 10953 10952 10951
10773 10774 10774 10774 10779 10782 10783 10780 10781 10785 10794 10801 10811 10822 10828 10841 10856 10866 10875 10885 10895 10904 10911 10920 10929 10936 10939 10943 10946 10949 10951 10954 10957 10956 10956 10957 10957 10957 10956 10954 10953 10955 10956 10956 10955
10759 10761 10760 10763 10767 10770 10771 10770 10772 10777 10785 10793 10801 10811 10817 10830 10846 10858 10865 10874 10883 10895 10906 10915 10924 10931 10933 10940 10943 10947 10952 10955 10955 10956 10955 10956 10957 10958 10957 10956 10956 10956 10956 10956 10956
10742 10744 10745 10748 10751 10754 10758 10760 10763 10769 10774 10783 10791 10802 10810 10819 10836 10850 10855 10859 10874 10888 10901 10909 10920 10926 10932 10937 10940 10943 10948 10953 10955 10956 10956 10956 10957 10958 10959 10958 10958 10957 10956 10955 10955
10720 10722 10725 10727 10731 10735 10741 10747 10751 10756 10761 10767 10775 10787 10801 10811 10826 10840 10845 10852 10865 10877 10889 10902 10914 10923 10928 10928 10932 10939 10943 10948 10951 10953 10955 10957 10956 10957 10958 10959 10959 10958 10957 10957 10956
10689 10694 10701 10705 10707 10713 10721 10729 10735 10740 10747 10753 10762 10772 10786 10800 10814 10827 10831 10841 10856 10866 10879 10897 10911 10916 10921 10927 10930 10934 10938 10942 10946 10949 10952 10954 10954 10956 10957 10958 10959 10957 10956 10956 10957
10649 10653 10662 10673 10679 10688 10698 10710 10716 10721 10733 10741 10749 10758 10773 10786 10796 10802 10809 10821 10836 10852 10865 10883 10898 10909 10917 10923 10926 10931 10935 10939 10944 10946 10949 10951 10953 10956 10956 10957 10958 10957 10957 10956 10957
10598 10608 10619 10629 10645 10659 10673 10684 10693 10705 10714 10725 10731 10744 10753 10762 10778 10787 10800 10811 10828 10844 10861 10877 10890 10899 10911 10917 10922 10931 10933 10936 10939 10942 10944 10948 10953 10955 10956 10957 10958 10956 10956 10956 10955